Location: Caseificio
(44.7500°N, 11.0500°E)
Time: 22:47:26
(UTC+00:00)

COSMOS 2455 - Pass Details

Date: 26 May 2022
Orbit: 901 x 908 km, 67.1° (Epoch: 26 June)

Event Time Altitude Azimuth Distance (km) Brightness Sun altitude
Exits shadow 02:04:48 19° 220° (SW) 2,036 4.0 -13.4°
Maximum altitude 02:09:17 74° 303° (WNW) 946 2.9 -12.8°
Drops below altitude 10° 02:15:20 10° 29° (NNE) 2,601 6.6 -12.1°
Sets 02:17:52 0° 31° (NNE) 3,546 7.8 -11.8°
